Probability
3 3 3 3 3 4 4 4 4 3 2 1 0 0 0 0 0 0 0 0 0 0 0 0 0 0 0 0 0 0 0 0 0 0 0 0 0 0
3 3 3 3 4 4 5 5 4 3 2 1 0 0 0 0 0 0 0 0 0 0 0 0 0 0 0 0 0 0 0 0 0 0 0 0 0 0
4 3 3 4 5 6 6 6 5 3 2 0 0 0 0 0 0 0 0 0 0 0 0 0 0 0 0 0 0 0 0 0 0 0 0 0 0 0
5 4 3 4 5 6 5 4 3 3 2 1 0 0 0 0 0 0 0 0 0 0 0 0 0 0 0 0 0 0 0 0 0 0 0 0 0 0
5 4 3 3 4 4 3 2 2 2 2 1 0 0 0 0 0 0 0 0 0 0 0 0 0 0 0 0 0 0 0 0 0 0 0 0 0 0
4 3 3 3 3 3 2 2 3 2 2 1 1 0 0 0 0 0 0 0 0 0 0 0 0 0 0 0 0 0 0 0 0 0 0 0 0 0
4 4 3 3 3 2 1 1 2 2 2 2 1 0 0 0 0 0 0 1 0 0 1 1 0 1 1 1 0 0 0 0 0 0 0 0 0 0
6 5 4 4 3 2 0 0 1 1 1 1 1 0 0 0 0 0 1 1 1 2 3 2 1 1 3 3 1 0 0 0 0 0 0 0 0 0
6 6 6 5 3 2 1 0 0 0 0 0 0 0 1 1 0 1 2 2 3 6 7 5 2 1 2 2 1 0 0 0 0 0 0 0 0 0
6 5 5 4 2 1 1 0 0 0 0 0 0 0 1 1 1 2 2 3 4 6 8 7 4 2 1 1 0 0 0 0 0 0 0 0 0 0
5 4 4 3 1 1 1 1 1 2 1 1 1 0 1 1 1 2 2 4 5 6 8 9 7 4 1 0 0 0 0 0 0 0 0 0 0 0
4 4 3 2 0 0 2 3 3 3 2 2 1 1 1 1 1 1 2 6 8 9 9 8 7 5 2 0 0 0 0 0 0 0 0 0 0 0
5 5 5 3 1 0 1 2 3 2 2 2 1 2 4 4 3 1 2 6 10 11 9 8 7 5 4 1 0 0 0 0 1 1 1 0 0 0
5 5 5 3 1 0 0 0 1 1 1 1 1 3 5 5 4 3 2 3 6 7 7 8 7 6 5 2 0 0 0 0 1 2 2 1 0 0
4 4 3 1 0 0 0 0 0 0 1 2 3 3 4 4 4 4 3 2 2 2 3 5 6 6 5 3 1 1 1 1 1 1 1 1 0 0
2 2 2 1 1 1 2 1 1 1 2 3 3 3 3 3 3 4 3 3 2 2 2 3 4 4 5 4 2 2 1 1 1 2 1 1 0 0
3 3 3 2 2 3 3 3 2 3 3 3 3 3 3 3 3 3 3 3 4 4 4 4 3 3 4 3 3 2 1 2 2 3 3 2 1 0
3 3 3 3 3 3 3 3 3 3 3 3 3 3 3 3 3 3 3 3 4 5 5 5 4 3 3 3 2 2 2 3 3 4 5 5 3 2
1 2 2 2 2 3 3 3 2 2 2 2 2 2 2 2 3 3 3 3 3 3 3 4 4 3 3 2 1 1 2 3 3 3 4 5 5 4
0 1 1 1 1 1 2 2 2 2 1 1 1 1 1 1 2 3 3 3 3 3 2 3 4 3 3 2 1 1 1 2 1 1 3 4 5 5
0 0 0 0 0 1 2 2 2 2 2 1 0 0 0 1 1 1 2 2 2 2 2 2 3 2 2 1 1 0 1 1 0 1 2 3 4 4
0 0 0 0 0 0 1 1 1 1 2 1 1 1 1 2 2 1 1 1 1 1 1 1 1 1 1 0 0 0 1 2 1 0 1 1 1 2
0 0 0 0 0 0 0 0 0 1 2 2 2 2 2 3 4 2 1 1 1 1 0 0 1 1 1 0 0 0 1 2 2 1 0 0 0 0
Wind_Speed
2 2 1 1 1 1 2 2 3 2 2 3 2 2 2 3 3 3 3 4 5 6 6 6 5 5 5 5 4 4 4 4 4 4 3 4 4 4
1 1 1 1 1 1 2 2 2 2 2 2 3 2 2 2 4 3 4 5 6 6 6 6 6 6 6 6 6 6 6 5 5 4 4 4 4 4
1 2 2 2 2 1 2 2 2 2 2 2 2 2 2 3 2 3 3 4 4 6 7 7 7 6 6 6 6 6 6 6 5 5 5 4 4 4
3 2 2 2 2 2 2 3 3 3 3 3 2 2 2 3 2 3 3 3 3 5 7 7 7 7 7 7 7 7 7 6 6 6 6 5 5 5
4 4 4 3 3 2 3 3 2 2 2 2 2 1 1 1 1 2 3 2 3 4 6 7 7 8 8 8 8 8 7 7 7 6 6 6 6 6
4 4 4 4 4 4 3 4 3 2 2 2 2 1 1 1 1 2 2 2 2 2 3 4 5 7 8 8 9 8 8 8 8 7 7 7 7 6
4 4 5 5 5 4 4 4 4 3 2 2 2 1 2 1 2 2 3 2 2 2 2 3 3 3 4 7 8 9 9 9 9 8 9 8 8 8
4 4 4 5 5 5 5 5 5 4 4 3 3 3 4 3 2 3 2 2 2 2 2 3 2 4 4 4 6 8 9 9 9 9 9 9 9 8
5 4 4 4 4 3 3 4 4 5 6 4 4 5 4 4 4 4 4 4 4 2 2 3 2 4 3 4 6 8 8 9 9 9 9 9 9 9
5 5 5 4 4 4 4 3 3 4 5 5 5 5 5 4 5 5 4 3 3 2 3 3 3 3 3 3 5 7 8 8 7 7 8 8 9 9
5 5 5 5 6 6 4 4 4 4 4 4 5 5 5 4 4 2 3 3 3 3 3 3 3 2 2 3 3 5 6 6 6 7 7 8 8 8
4 4 6 7 6 6 5 5 5 5 3 3 3 3 4 4 5 5 5 4 3 3 4 4 3 2 2 2 2 2 3 4 5 5 7 8 8 5
4 4 4 6 7 7 6 6 7 5 3 3 3 3 2 2 3 4 5 5 5 5 4 4 3 3 3 2 2 2 2 2 2 3 5 6 7 7
5 4 4 5 6 6 5 6 6 4 2 2 3 3 3 3 4 4 5 6 6 6 4 5 4 4 3 3 3 2 2 2 2 2 3 4 5 7
4 5 5 5 5 4 5 5 4 3 3 3 4 4 4 4 3 3 3 3 4 5 4 5 5 4 4 4 3 3 2 2 3 3 3 3 4 4
4 3 3 4 3 3 3 3 3 3 3 4 4 4 3 3 3 3 3 2 2 3 3 4 5 5 4 4 4 4 3 3 3 3 3 3 3 4
2 1 1 1 2 2 2 3 3 3 4 4 3 4 3 3 3 3 3 3 3 3 2 1 2 3 4 4 4 4 4 4 4 3 3 3 4 5
3 2 3 3 3 4 4 3 3 3 4 4 4 4 4 4 4 3 3 3 4 4 3 2 2 2 2 2 4 5 4 4 3 4 4 4 4 4
2 3 3 4 4 4 4 3 3 3 3 3 3 4 4 4 4 3 3 4 4 4 4 3 3 3 4 4 3 5 5 3 3 3 4 4 5 4
2 3 3 4 4 4 4 3 3 3 2 3 4 4 4 4 4 4 4 4 4 4 3 3 4 4 5 5 3 3 5 5 4 4 4 3 3 3
2 3 3 3 3 3 4 3 3 3 3 3 3 4 3 3 3 4 4 4 4 3 4 4 4 5 3 1 2 2 2 4 5 4 4 3 3 3
3 3 3 3 3 3 3 2 3 3 3 3 3 3 3 3 4 4 4 3 3 4 4 3 2 3 3 4 4 4 3 2 3 5 5 4 4 4
3 3 3 3 3 3 2 3 3 3 3 3 3 3 3 3 3 3 4 4 3 3 3 3 2 2 3 4 4 4 4 3 2 2 3 5 7 7
Wind_Direction
178 180 198 204 186 190 180 176 174 201 244 245 236 227 218 217 218 213 219 226 220 218 218 217 217 216 216 217 220 222 221 221 224 225 220 222 219 217
173 173 196 213 196 195 191 195 193 190 225 238 234 234 223 228 209 214 225 230 231 227 220 215 213 212 215 215 217 219 219 220 221 220 220 219 219 218
186 186 218 208 204 203 198 197 197 187 217 259 252 243 219 228 226 223 229 228 234 229 222 219 218 218 219 221 221 220 218 219 219 221 223 223 224 220
212 207 229 216 211 207 204 210 207 200 201 237 250 233 234 231 228 230 237 236 236 234 226 223 222 222 223 223 221 218 216 216 218 224 225 225 223 222
214 216 225 215 224 216 209 209 211 204 198 211 243 236 245 236 225 240 241 248 247 240 231 228 226 226 224 224 223 220 219 219 220 223 223 225 226 222
220 222 224 216 219 215 213 211 203 195 189 201 232 243 243 234 210 230 249 243 252 255 244 237 233 232 230 227 225 223 222 220 219 220 222 223 221 219
231 231 233 227 223 214 214 205 198 197 192 199 216 223 225 213 216 210 232 247 250 235 243 245 236 235 233 231 229 226 224 223 220 219 219 218 217 216
235 240 240 230 227 224 222 205 195 194 198 198 210 224 233 228 215 210 214 221 251 211 222 253 228 239 241 237 233 227 225 224 222 220 219 216 212 213
233 232 235 230 212 213 216 213 214 219 206 199 214 226 227 222 208 216 217 223 235 210 199 247 237 251 250 245 235 228 225 224 224 223 218 212 209 210
234 227 224 230 218 200 200 215 230 231 220 214 224 233 238 228 214 217 222 234 257 229 202 235 234 247 261 252 242 227 223 222 220 217 217 214 210 208
242 232 223 226 226 201 195 218 241 256 248 235 233 244 247 237 212 195 200 218 249 237 201 223 234 248 256 252 242 229 224 221 217 212 212 211 209 205
253 243 230 228 228 208 207 215 235 247 247 260 257 257 247 236 210 207 211 219 241 247 202 202 215 209 250 245 241 227 219 217 214 215 213 209 201 196
246 246 240 231 231 224 216 221 232 235 235 242 254 261 258 246 232 224 219 218 227 241 207 190 201 203 223 248 255 232 218 215 209 215 210 205 197 191
242 245 245 235 232 231 227 235 236 229 232 237 248 257 261 260 256 246 233 234 238 243 220 197 205 200 204 226 242 233 224 217 210 216 214 196 199 203
245 242 245 249 247 239 237 236 227 221 222 237 248 256 257 260 264 265 255 242 251 255 236 217 215 207 207 221 228 227 231 227 212 212 211 206 202 196
247 249 247 246 240 239 242 229 222 221 223 238 252 261 264 261 256 254 260 252 257 264 250 227 215 207 217 222 219 229 226 222 212 213 212 213 209 206
221 232 238 238 244 245 244 240 230 221 228 236 242 255 258 257 261 256 252 249 245 253 262 252 215 215 220 208 214 226 230 231 223 207 204 218 223 218
193 224 236 240 245 246 246 247 240 235 238 237 240 245 252 254 261 259 249 245 248 250 244 233 206 201 219 238 222 226 230 234 227 207 207 222 236 228
203 239 244 244 246 248 249 249 253 253 245 241 246 252 255 257 256 253 248 248 249 251 246 231 215 209 228 250 242 213 221 224 219 222 222 223 236 237
236 247 255 254 250 249 251 255 258 257 247 246 249 251 251 252 256 256 248 246 251 256 253 237 226 225 232 244 246 234 214 214 214 227 231 234 243 245
250 255 259 261 259 254 250 250 251 250 249 248 253 254 250 247 251 254 253 248 248 251 250 247 242 227 228 218 231 245 235 218 214 215 213 222 237 235
275 271 270 268 264 263 261 257 258 256 253 250 256 259 254 243 245 250 250 248 245 250 260 264 239 200 204 215 231 242 246 241 227 223 219 217 221 227
292 293 289 283 274 269 263 260 259 263 260 256 253 250 249 252 253 248 246 244 246 253 262 266 246 218 219 222 230 239 244 243 239 235 249 253 243 247